Location: Breckenridge
(39.4820°N, 106.0380°W)
Time: 17:46:00
(UTC-06:00)

ISS - Visible Passes

Search period start: 21 March 2019 00:00
Search period end: 31 March 2019 00:00
Orbit: 406 x 411 km, 51.6° (Epoch: 22 March)

Date Brightness Start Highest point End Pass type
(mag) Time Alt. Az. Time Alt. Az. Time Alt. Az.
21 Mar -2.9 21:09:50 10° WSW 21:12:51 47° NW 21:12:51 47° NW visible
22 Mar -3.9 20:18:41 10° SW 20:21:58 89° NW 20:24:40 14° NE visible
22 Mar -0.5 21:56:40 10° WNW 21:57:27 13° NW 21:57:27 13° NW visible
23 Mar -1.6 21:04:58 10° W 21:07:40 23° NNW 21:09:03 18° N visible
24 Mar -2.3 20:13:25 10° W 20:16:29 36° NNW 20:19:34 10° NE visible
24 Mar -0.6 21:52:26 10° NW 21:53:13 12° NNW 21:53:13 12° NNW visible
25 Mar -1.0 21:00:27 10° NW 21:02:26 15° NNW 21:04:25 10° NNE visible
26 Mar -1.4 20:08:37 10° WNW 20:11:07 20° NNW 20:13:38 10° NNE visible
27 Mar -0.9 20:56:14 10° NNW 20:57:16 11° N 20:58:18 10° N visible
28 Mar -1.0 20:04:10 10° NW 20:05:51 13° NNW 20:07:32 10° NNE visible
28 Mar -0.7 21:42:54 10° N 21:43:08 10° N 21:43:08 10° N visible
30 Mar -0.9 19:59:56 10° NNW 20:00:38 10° N 20:01:20 10° N visible
30 Mar -1.0 21:36:41 10° NNW 21:37:43 13° N 21:37:43 13° N visible
